Weather Service Report


186 
ASUS45 KCYS 220810
RWRWY 

WYOMING REGIONAL WEATHER ROUNDUP
NATIONAL WEATHER SERVICE CHEYENNE WY
200 AM MDT FRI MAY 22 2015

NOTE:  "FAIR" INDICATES FEW OR NO CLOUDS BELOW 12,000 FEET
WITH NO SIGNIFICANT WEATHER AND/OR OBSTRUCTIONS TO VISIBILITY.

WYZ001-220900-
YELLOWSTONE NATIONAL PARK
  
CITY           SKY/WX    TMP DP  RH WIND       PRES   REMARKS
LK YELLOWSTONE   N/A     34  31  88 CALM      30.08F                  
W YELLOWSTONE  NOT AVBL                                               

$$
WYZ002>013-054>058-071-098>099-220900-
NORTHERN WYOMING
  
CITY           SKY/WX    TMP DP  RH WIND       PRES   REMARKS
JACKSON        CLOUDY    45  43  93 NE6       30.01F                  
CODY           CLOUDY    48  41  76 SW10      29.98F                  
GREYBULL       FAIR      56  46  69 CALM      29.95F                  
WORLAND        MOCLDY    50  45  83 E5        29.96S                  
SHERIDAN       FAIR      49  42  77 SE13      29.98F                  
BUFFALO        MOCLDY    46  42  86 S10       30.02F                  
GILLETTE       FAIR      47  42  83 SE9       30.03F                  
HULETT         FAIR      45  37  76 E8        30.08F                  
NEWCASTLE      CLOUDY    50  41  71 SE14G21   30.10R                  

$$
WYZ014>020-022>026-101>103-220900-
CENTRAL WYOMING
  
CITY           SKY/WX    TMP DP  RH WIND       PRES   REMARKS
BIG PINEY      CLOUDY    43  41  93 CALM      30.05S                  
PINEDALE       CLOUDY    43  41  93 N3        30.06S                  
DUBOIS         RAIN      37  36  93 N3        30.05S                  
LANDER         CLOUDY    48  41  76 CALM      29.98F                  
RIVERTON       FAIR      47  44  90 N8        30.01F                  
CASPER         MOCLDY    45  42  89 E7        30.01F                  
DOUGLAS        CLOUDY    48  44  86 SE12      30.05S                  

$$
WYZ021-027>030-104>119-220900-
SOUTHERN WYOMING
  
CITY           SKY/WX    TMP DP  RH WIND       PRES   REMARKS
EVANSTON       MOCLDY    41  37  86 E10       30.00F                  
KEMMERER       FAIR      41  36  81 NE7       30.03S                  
FORT BRIDGER   SUNNY     43  43 100 E3        30.04F                  
ROCK SPRINGS   CLOUDY    43  38  82 S14       30.02F                  
DIXON          DRIZZLE   48  43  83 CALM      30.03S                  
RAWLINS        LGT RAIN  44  42  93 SE6       30.04F                  
SARATOGA       DRIZZLE   43  41  93 NW3       30.05S                  
LARAMIE        CLOUDY    42  41  96 SE14      30.04F                  
CHEYENNE       FOG       43  42  97 SE15G28   30.07F VSB 1            
TORRINGTON     CLOUDY    50  45  83 SE9       30.07F                  
PINE BLUFFS    CLOUDY    45  43  93 S16       30.10F                  

$$

Return to Home page


Western Regional Climate Center, wrcc@dri.edu